Regional Weather Roundup
Issued by NWS

Home | Current Version | Previous Version | Graphics & Text | Print | Product List | Glossary On
Versions: 1 2 3 4 5 6 7 8 9 10 11 12 13 14 15 16 17 18 19 20 21 22 23 24 25 26 27 28 29 30 31 32 33 34 35 36 37 38 39 40 41 42 43 44 45 46 47 48 49 50
000
ASUS43 KLOT 290103
RWRIL

ILLINOIS REGIONAL WEATHER ROUNDUP
NATIONAL WEATHER SERVICE CHICAGO/ROMEOVILLE IL
800 PM CDT WED SEP 28 2016

NOTE: "FAIR" INDICATES FEW OR NO CLOUDS BELOW 12,000 FEET WITH NO
SIGNIFICANT WEATHER AND/OR OBSTRUCTIONS TO VISIBILITY.

* THESE STATIONS ARE NOT UNDER NWS QUALITY CONTROL. THEY ALSO MAY NOT
  REPORT WEATHER SUCH AS PRECIPITATION OR FOG.

ILZ001-002-007-009-015-016-024-290200-
NORTHWEST ILLINOIS

CITY           SKY/WX    TMP DP  RH WIND       PRES   REMARKS
MOLINE         PTCLDY    59  50  72 N8        30.14R
STERLING*      CLEAR     56  52  86 N8        30.14R
$$

ILZ003-004-008-010-011-017-018-290200-
NORTH CENTRAL ILLINOIS

CITY           SKY/WX    TMP DP  RH WIND       PRES   REMARKS
ROCKFORD       PTCLDY    58  48  69 N10       30.15R
FREEPORT*      CLEAR     53  50  89 N7        30.16R
ROCHELLE*      CLEAR     54  49  86 N7        30.12R
$$

ILZ005-006-012>014-019>023-290200-
NORTHEAST ILLINOIS

CITY           SKY/WX    TMP DP  RH WIND       PRES   REMARKS
CHICAGO-OHARE  CLOUDY    55  52  89 N14G24    30.05F
CHICAGO-MIDWAY LGT RAIN  56  52  86 N13       30.05R FOG
AURORA         CLOUDY    60  47  61 NE15G24   30.10R
LANSING*       HVY RAIN  56  54  94 E7        30.04R
WAUKEGAN       LGT RAIN  54  51  90 N8G18     30.09R
DUPAGE AIRPORT LGT RAIN  54  48  80 N12       30.08R
KANKAKEE*      RAIN      56  53  89 N9G17     30.04R
WHEELING       CLOUDY    56  52  86 N12G18    30.09F
NORTHERLY ISL    N/A     56  52  86 NW13        N/A
$$

LMZ740>746-290200-
SOUTHERN LAKE MICHIGAN

STATION/POSITION SKY/WX   TEMP    WIND        PRES    VSBY  WAVE
                          AIR SEA DIR/SP/G                  HT/PER
                          (F)     (DEG/KT/KT) (MB)    (MI)  (FT/S)
SOUTHERN BUOY              64 69   50/ 23/ 29 1016.4          5/ 5
WILMETTE HARBOR            56 57   10/ 19/ 29   N/A           6/ 6
HARRISON CRIB              57     330/ 19/ 21   N/A
BURNHAM HARBOR             57     320/ 11/ 18   N/A
CALUMET HARBOR             62     350/ 12/ 19   N/A
BURNS HARBOR               62      20/ 24/ 29 1015.6R
MICHIGAN CITY              60      20/ 27/ 31   N/A
MICHIGAN CITY 6N           62 66   40/ 23/ 29   N/A           7/ 5
ST. JOSEPH                 60 65   30/ 16/ 21 1016.3R         6/ 5
$$

ILZ025>027-034>036-040-047-049-050-058-095>099-290200-
WEST-CENTRAL ILLINOIS

CITY           SKY/WX    TMP DP  RH WIND       PRES   REMARKS
QUINCY         CLOUDY    59  49  69 NW7       30.13R
GALESBURG*     PTCLDY    56  49  77 N9        30.13R
MACOMB*        PTCLDY    57  48  71 NW7       30.14R
$$

ILZ028>032-037-038-041>044-048-051>054-059>061-290200-
CENTRAL ILLINOIS

CITY           SKY/WX    TMP DP  RH WIND       PRES   REMARKS
BLOOMINGTON    CLOUDY    58  49  72 N15       30.08R
DECATUR        CLOUDY    59  49  69 NW12      30.07R
PEORIA         CLEAR     56  50  80 N6        30.10R
LINCOLN*       MOCLDY    58  51  77 NW3       30.08R
SPRINGFIELD    CLOUDY    58  51  78 NW6       30.09R
TAYLORVILLE    NOT AVBL
$$

ILZ033-039-045-046-055>057-062-063-290200-
EAST-CENTRAL ILLINOIS

CITY           SKY/WX    TMP DP  RH WIND       PRES   REMARKS
CHAMPAIGN      CLOUDY    55  50  83 N7        30.05R
MATTOON        CLOUDY    57  48  72 NW14      30.03R
$$

ILZ079-100>102-290200-
SOUTHWEST ILLINOIS

CITY           SKY/WX    TMP DP  RH WIND       PRES   REMARKS
BELLEVILLE     PTCLDY    58  47  68 NW10      30.08R
CAHOKIA*       MOCLDY    61  45  55 NW14G21   30.11R
SPARTA*        CLOUDY    58  47  67 NW5       30.09S
$$

ILZ064>066-069>071-074>076-080>082-084>086-088>090-092>094-290200-
SOUTH-CENTRAL ILLINOIS

CITY           SKY/WX    TMP DP  RH WIND       PRES   REMARKS
CARBONDALE     MOCLDY    58  47  66 NW12      30.08R
MT. VERNON     PTCLDY    57  43  58 CALM      30.08R
CENTRALIA*     PTCLDY    57  49  74 NW6       30.07R
SALEM*         MOCLDY    56  48  73 NW5       30.07R
METROPOLIS*    CLEAR     60  47  61 N7        30.07R
$$

ILZ067-068-072-073-078-083-087-091-290200-
SOUTHEAST ILLINOIS

CITY           SKY/WX    TMP DP  RH WIND       PRES   REMARKS
LAWRENCEVILLE  MOCLDY    58  46  64 NW9       30.03R
FLORA*         CLOUDY    60  49  65 NW9       30.05R
HARRISBURG*    CLEAR     57  48  71 NW7       30.06R
ROBINSON*      CLOUDY    56  48  75 NW6       30.04R
$$

ABBREVIATIONS USED IN REMARKS
   TC - TEMPERATURE IN CELSIUS
  WCI - WIND CHILL INDEX
   HX - HEAT INDEX
  VSB - VISIBILITY
$$





USA.gov is the U.S. government's official web portal to all federal, state and local government web resources and services.